[[{"header":{"parameterUnit":"m.s-1","parameterCategory":1,"la1":30.2991,"la2":30.254,"lo1":-89.0895,"lo2":-89.0444,"dy":0.0017,"dx":0.0017,"nx":28,"ny":28,"refTime":"2024-05-31T03:00:00:Z","depth":0,"parameterNumber":2,"parameterNumberName":"U-component_of_WINDS"},"data":[0,0,0,0,0,0,0,0,0,0,0,0,0,0,0,0,0,0,0,0,0,0,0,0,0,0,0,0,0,0,0,0,0,0,0,0,0,0,0,0,0,0,0,0,0,0,0,0,0,0,0,0,0,0,0,0,0,0,-3.1221,-3.1222,0,-3.1339,-3.1341,-3.1342,-3.1341,-3.134,-3.1338,-3.1337,-3.1456,-3.1461,-3.1466,0,0,0,0,0,0,0,0,0,0,0,0,0,-3.0993,-3.0997,-3.1221,-3.1222,-3.1224,-3.1339,-3.1341,-3.1342,-3.1341,-3.134,-3.1338,-3.1336,-3.1455,-3.146,-3.1466,0,0,0,0,0,0,0,0,0,0,0,0,0,-3.1099,-3.0998,-3.122,-3.1237,-3.124,-3.1339,-3.1341,-3.1343,-3.1342,-3.134,-3.1337,-3.1335,-3.1453,-3.146,-3.1467,-3.1556,0,0,-3.1488,-3.1491,0,0,0,0,0,0,0,0,-3.1093,-3.1108,-3.1233,-3.1236,-3.1239,-3.1323,-3.1304,-3.1414,-3.1342,-3.1303,-3.1337,-3.1334,-3.1414,-3.1424,-3.1451,-3.1562,-3.1567,-3.1489,-3.1493,-3.1496,-3.1498,0,0,0,0,0,0,0,-3.1086,-3.1103,-3.1267,-3.1235,-3.1239,-3.1238,-3.1251,-3.1325,-3.137,-3.1306,-3.1307,-3.1321,-3.1415,-3.1444,-3.1454,-3.1569,-3.1488,-3.1495,-3.1499,-3.1502,-3.1759,-3.1761,0,0,0,0,0,0,-3.1075,-3.1096,-3.1264,-3.1271,-3.1159,-3.1244,-3.1259,-3.1298,-3.1369,-3.1378,-3.1323,-3.132,-3.1434,-3.1446,-3.1458,-3.1567,-3.1496,-3.1502,-3.1506,-3.1756,-3.1759,-3.1762,0,0,0,0,0,0,-3.107,-3.109,-3.1259,-3.1184,-3.1205,-3.1251,-3.1296,-3.1302,-3.1331,-3.1382,-3.1389,-3.1344,-3.1432,-3.1448,-3.1532,-3.1571,-3.1505,-3.1512,-3.1753,-3.1757,-3.1761,-3.1785,0,0,0,0,0,0,-3.1064,-3.1088,-3.1123,-3.1185,-3.1209,-3.1331,-3.1298,-3.1306,-3.1344,-3.1342,-3.1404,-3.1412,-3.1432,-3.1522,-3.1539,-3.1579,-3.1517,-3.1749,-3.1755,-3.1759,-3.1781,-3.1789,-3.1796,0,0,0,0,0,-3.1056,-3.1125,-3.1125,-3.1145,-3.1254,-3.1333,-3.1347,-3.1369,-3.1347,-3.1382,-3.1414,-3.141,-3.1565,-3.153,-3.155,-3.1593,-3.1747,-3.1753,-3.1759,-3.1777,-3.1787,-3.1796,0,0,0,0,0,0,-3.1066,-3.1133,-3.1134,-3.1225,-3.1274,-3.1333,-3.1377,-3.1379,-3.1434,-3.143,-3.1454,-3.1468,-3.1551,-3.1581,-3.1541,-3.1683,-3.1653,-3.1663,-3.166,-3.167,-3.1678,-3.1668,-3.1523,0,0,0,0,0,-3.1079,-3.1138,-3.1194,-3.1269,-3.1293,-3.1331,-3.1367,-3.138,-3.143,-3.145,-3.1489,-3.1538,-3.1597,-3.1636,-3.1694,-3.1786,-3.1799,-3.1825,-3.1833,-3.1839,-3.1847,-3.1897,-3.1909,-3.1782,-3.1782,-3.1781,0,0,-3.1106,-3.115,-3.1186,-3.1272,-3.1311,-3.1371,-3.1348,-3.1413,-3.1458,-3.146,-3.1541,-3.1571,-3.1628,-3.1716,-3.1756,-3.1743,-3.1885,-3.1847,-3.1851,-3.1856,-3.1904,-3.1916,-3.1927,-3.1786,-3.1785,-3.1784,0,0,-3.1185,-3.1226,-3.1292,-3.1332,-3.1391,-3.1416,-3.1433,-3.1492,-3.1512,-3.1594,-3.1597,-3.1651,-3.1753,-3.1793,-3.1827,-3.1923,-3.1921,-3.1941,-3.1981,-3.203,-3.204,-3.2048,-3.2081,-3.2093,-3.1949,-3.1949,-3.1949,0,-3.1211,-3.1302,-3.1326,-3.1391,-3.1428,-3.1435,-3.1502,-3.1539,-3.1614,-3.164,-3.1624,-3.1753,-3.1791,-3.1888,-3.1912,-3.1939,-3.1958,-3.1933,-3.2036,-3.2046,-3.2054,-3.2086,-3.2098,-3.1951,-3.1951,-3.1951,-3.1951,0,-3.133,-3.1394,-3.144,-3.1513,-3.1556,-3.1622,-3.1655,-3.1696,-3.1706,-3.1732,-3.1815,-3.1862,-3.1929,-3.1954,-3.1964,-3.2052,-3.2042,-3.2031,-3.2001,-3.2068,-3.2098,-3.211,-3.1954,-3.1953,-3.1953,-3.1952,0,0,-3.1417,-3.1503,-3.1519,-3.1552,-3.1619,-3.1668,-3.1735,-3.1801,-3.1834,-3.1887,-3.1942,-3.2029,-3.202,-3.2058,-3.2073,-3.2116,-3.2188,-3.21,-3.2102,-3.2113,-3.2287,-3.2292,-3.2306,-3.2188,-3.2191,-3.2192,-3.2281,0,-3.1502,-3.162,-3.1643,-3.1745,-3.1803,-3.1811,-3.1868,-3.1915,-3.1943,-3.1996,-3.2026,-3.2087,-3.2071,-3.2094,-3.2137,-3.217,-3.2222,-3.2164,-3.2238,-3.2241,-3.2221,-3.2322,-3.2328,-3.241,-3.2293,-3.2295,-3.2297,0,-3.1616,-3.1671,-3.1779,-3.1838,-3.1863,-3.1914,-3.1977,-3.2028,-3.2082,-3.2099,-3.2142,-3.2152,-3.2221,-3.219,-3.2285,-3.2244,-3.2277,-3.2298,-3.2302,-3.2307,-3.2271,-3.2328,-3.2436,-3.2448,-3.2316,-3.2314,-3.2313,0,-3.1666,-3.1768,-3.1845,-3.1873,-3.1944,-3.198,-3.2011,-3.2063,-3.2101,-3.2156,-3.2181,-3.2243,-3.2277,-3.2324,-3.2351,-3.2326,-3.2443,-3.2415,-3.2458,-3.2457,-3.248,-3.2478,-3.2593,-3.2505,-3.2505,-3.2505,-3.2504,0,-3.1757,-3.1822,-3.1868,-3.1915,-3.1988,-3.2016,-3.2087,-3.2118,-3.2164,-3.2217,-3.2229,-3.2278,-3.2312,-3.2366,-3.2388,-3.2462,-3.2478,-3.2492,-3.2497,-3.249,-3.2488,-3.2509,-3.2504,-3.2508,-3.2507,-3.2507,-3.2506,0,-3.1824,-3.1858,-3.1942,-3.2003,-3.202,-3.2071,-3.2123,-3.2169,-3.2197,-3.2264,-3.2282,-3.2325,-3.239,-3.2422,-3.2503,-3.2517,-3.2601,-3.2603,-3.2582,-3.2584,-3.2624,-3.2619,-3.2755,-3.2774,-3.2676,-3.2677,-3.2677,0,-3.1879,-3.1929,-3.1995,-3.2032,-3.2064,-3.2123,-3.2162,-3.2191,-3.2231,-3.2297,-3.2335,-3.24,-3.2454,-3.2557,-3.2595,-3.2657,-3.2659,-3.2703,-3.2668,-3.266,-3.2658,-3.2653,-3.2658,-3.2708,-3.2709,-3.271,-3.271,0,-3.1971,-3.1986,-3.2041,-3.2104,-3.215,-3.22,-3.225,-3.2279,-3.2317,-3.2361,-3.2428,-3.2469,-3.2552,-3.2616,-3.2681,-3.2713,-3.2718,-3.2721,-3.2734,-3.2726,-3.2711,-3.2718,-3.2596,-3.2717,-3.2717,-3.2716,-3.2716,-3.2715,-3.2032,-3.2077,-3.213,-3.2192,-3.2233,-3.2279,-3.2325,-3.2359,-3.2415,-3.2484,-3.2499,-3.2569,-3.2622,-3.2709,-3.2744,-3.2799,-3.2789,-3.2808,-3.2813,-3.2816,-3.2817,-3.2705,-3.2811,-3.2811,-3.2811,-3.281,-3.281,0,-3.2124,-3.2159,-3.2216,-3.2285,-3.2333,-3.2335,-3.239,-3.2431,-3.2492,-3.2541,-3.2594,-3.267,-3.2733,-3.2778,-3.2841,-3.2877,-3.288,-3.2892,-3.2889,-3.2896,-3.2823,-3.2804,-3.2888,-3.2888,-3.2888,-3.2888,-3.2888,-3.2888,-3.2177,-3.2252,-3.2272,-3.2368,-3.2403,-3.2471,-3.2502,-3.2545,-3.2584,-3.2669,-3.2721,-3.275,-3.2797,-3.2865,-3.2922,-3.2934,-3.2956,-3.2968,-3.2979,-3.2909,-3.2901,-3.2893,-3.2876,-3.2973,-3.2973,-3.3047,-3.3047,-3.3048]},{"header":{"parameterUnit":"m.s-1","parameterCategory":1,"la1":30.2991,"la2":30.254,"lo1":-89.0895,"lo2":-89.0444,"dy":0.0017,"dx":0.0017,"nx":28,"ny":28,"refTime":"2024-05-31T03:00:00:Z","depth":0,"parameterNumber":3,"parameterNumberName":"V-component_of_WINDS"},"data":[0,0,0,0,0,0,0,0,0,0,0,0,0,0,0,0,0,0,0,0,0,0,0,0,0,0,0,0,0,0,0,0,0,0,0,0,0,0,0,0,0,0,0,0,0,0,0,0,0,0,0,0,0,0,0,0,0,0,1.9217,1.9217,0,1.9231,1.9231,1.9231,1.9185,1.9183,1.9182,1.918,1.9194,1.9195,1.9197,0,0,0,0,0,0,0,0,0,0,0,0,0,1.9147,1.9148,1.9217,1.9217,1.9217,1.9231,1.9231,1.9231,1.9185,1.9183,1.9181,1.918,1.9193,1.9195,1.9197,0,0,0,0,0,0,0,0,0,0,0,0,0,1.9171,1.9149,1.9217,1.9195,1.9194,1.9231,1.9231,1.9231,1.9185,1.9183,1.9181,1.9179,1.9192,1.9195,1.9197,1.9255,0,0,1.9205,1.9206,0,0,0,0,0,0,0,0,1.917,1.9173,1.9198,1.9197,1.9195,1.9204,1.9211,1.9239,1.9186,1.9188,1.918,1.9178,1.9199,1.92,1.9208,1.9256,1.9256,1.9205,1.9207,1.9208,1.9208,0,0,0,0,0,0,0,1.9168,1.9173,1.9222,1.9199,1.9197,1.9185,1.9186,1.9217,1.9205,1.9188,1.9185,1.9187,1.9197,1.9205,1.9208,1.9256,1.9205,1.9207,1.9209,1.921,1.9352,1.9354,0,0,0,0,0,0,1.9169,1.9172,1.9222,1.9223,1.9177,1.9188,1.9189,1.9203,1.9205,1.9203,1.9189,1.9185,1.9202,1.9205,1.9208,1.9275,1.9208,1.921,1.9211,1.935,1.9353,1.9355,0,0,0,0,0,0,1.9168,1.9174,1.9221,1.9196,1.9201,1.9191,1.9208,1.9205,1.9213,1.9205,1.9203,1.9199,1.9201,1.9204,1.9244,1.9275,1.9211,1.9213,1.9347,1.9351,1.9354,1.941,0,0,0,0,0,0,1.9166,1.9174,1.9196,1.9197,1.9203,1.9257,1.9209,1.9206,1.9217,1.9212,1.9215,1.9213,1.9199,1.924,1.9246,1.9277,1.9215,1.9344,1.9349,1.9353,1.9405,1.9415,1.9423,0,0,0,0,0,1.9164,1.9211,1.9198,1.9204,1.923,1.9259,1.9262,1.9246,1.922,1.9242,1.9237,1.9213,1.9271,1.9245,1.9251,1.9283,1.9342,1.9347,1.9352,1.9401,1.9413,1.9423,0,0,0,0,0,0,1.9214,1.9211,1.9196,1.9245,1.9253,1.9251,1.9278,1.9259,1.9274,1.9268,1.9247,1.9248,1.9291,1.9291,1.9262,1.9339,1.9302,1.9309,1.9337,1.9348,1.9357,1.9355,1.9217,0,0,0,0,0,1.9231,1.9255,1.9251,1.9295,1.9299,1.9288,1.93,1.9287,1.9294,1.9297,1.9295,1.9302,1.9322,1.9335,1.9353,1.9406,1.9405,1.9431,1.944,1.9448,1.9453,1.948,1.9491,1.9372,1.9372,1.9372,0,0,1.9265,1.9267,1.9283,1.9305,1.9309,1.9334,1.9291,1.9319,1.9337,1.9301,1.9338,1.9337,1.9343,1.939,1.941,1.9391,1.9486,1.9454,1.946,1.9461,1.9487,1.9498,1.9508,1.9375,1.9375,1.9374,0,0,1.934,1.9345,1.9381,1.9387,1.9394,1.9387,1.9396,1.9398,1.9396,1.9433,1.9406,1.9427,1.9461,1.9467,1.9474,1.9553,1.9531,1.956,1.9606,1.9632,1.9642,1.965,1.9677,1.9687,1.9565,1.9566,1.9566,0,1.9382,1.9419,1.9402,1.9432,1.9442,1.9412,1.9448,1.9454,1.9467,1.9474,1.9453,1.9496,1.9499,1.9545,1.9564,1.9572,1.9581,1.9558,1.9642,1.965,1.9657,1.9683,1.9693,1.9569,1.9569,1.9568,1.9568,0,1.947,1.9496,1.9524,1.9538,1.9551,1.9584,1.9572,1.9588,1.9574,1.9569,1.9606,1.9608,1.9626,1.9636,1.9623,1.9681,1.9669,1.9646,1.9608,1.9672,1.9696,1.9706,1.9574,1.9573,1.9572,1.9571,0,0,1.9575,1.958,1.9591,1.9596,1.9603,1.9622,1.9654,1.9672,1.9685,1.9695,1.9721,1.9751,1.973,1.9738,1.9725,1.9749,1.981,1.9722,1.9722,1.9738,1.9873,1.989,1.9901,1.9796,1.9798,1.9799,1.9872,0,1.9648,1.9703,1.9689,1.9743,1.9766,1.9738,1.9766,1.9772,1.9769,1.9787,1.9783,1.9804,1.9775,1.978,1.9802,1.9798,1.9837,1.9793,1.9818,1.982,1.9816,1.9914,1.9931,2.0,1.9881,1.9883,1.9884,0,1.9741,1.9755,1.9812,1.9814,1.9823,1.9848,1.9863,1.9882,1.9889,1.9885,1.9895,1.9878,1.9908,1.9872,1.9913,1.9883,1.9893,1.9893,1.9895,1.9896,1.9855,1.9915,2.0021,2.0031,1.9899,1.9897,1.9896,0,1.9811,1.9844,1.9882,1.9888,1.9892,1.9911,1.9913,1.9918,1.993,1.9943,1.995,1.9967,1.9976,1.9989,1.9976,1.9951,2.0019,1.9982,2.0015,2.0016,2.003,2.0029,2.0137,2.0039,2.0039,2.0039,2.0038,0,1.9893,1.9928,1.9913,1.9937,1.9975,1.9959,1.9998,1.9997,2.0002,2.0024,2.0001,2.0022,2.0005,2.0025,2.0015,2.005,2.0055,2.0051,2.0048,2.0053,2.0053,2.0058,2.0052,2.0041,2.0041,2.004,2.004,0,1.9977,1.9968,2.0008,2.0009,2.001,2.0039,2.0039,2.006,2.0056,2.0084,2.0089,2.0081,2.0103,2.0093,2.0115,2.0109,2.0154,2.0145,2.0152,2.0149,2.0183,2.0179,2.0297,2.0311,2.0205,2.0206,2.0207,0,2.0029,2.0056,2.006,2.0073,2.0078,2.01,2.0112,2.0097,2.011,2.0121,2.0141,2.0161,2.0176,2.0212,2.0208,2.0225,2.0215,2.0255,2.0218,2.0221,2.0214,2.0212,2.0215,2.0262,2.0264,2.0265,2.0266,0,2.0122,2.0117,2.0135,2.0152,2.0167,2.018,2.019,2.0203,2.0188,2.0204,2.0227,2.0239,2.0262,2.0282,2.0297,2.0299,2.028,2.0278,2.0286,2.029,2.0293,2.0291,2.0171,2.0275,2.0274,2.0273,2.0273,2.0272,2.0191,2.0213,2.022,2.0241,2.0247,2.0258,2.0278,2.0276,2.0294,2.0312,2.0303,2.0329,2.0335,2.0354,2.0358,2.0378,2.0362,2.0375,2.0378,2.0381,2.0385,2.0291,2.0381,2.0381,2.038,2.038,2.038,0,2.0282,2.0285,2.0305,2.0321,2.0337,2.0319,2.033,2.0344,2.0368,2.0376,2.0391,2.0417,2.0436,2.0434,2.0452,2.0468,2.046,2.0473,2.0471,2.0471,2.0399,2.0389,2.0479,2.0479,2.0479,2.0479,2.0479,2.0479,2.0331,2.0368,2.0363,2.0403,2.0405,2.0431,2.0438,2.0448,2.0454,2.0484,2.05,2.0499,2.0503,2.052,2.0537,2.0536,2.0543,2.056,2.0555,2.0487,2.0477,2.0467,2.0458,2.0561,2.0562,2.0626,2.0627,2.0627]}]]